sat.trackr.live / text

‹ back to catalog

STARLINK-36966

NORAD 68044 · 2026-041E

PAYLOAD ACTIVE UNKNOWN

§ Identity

Operator
Country
US
Launch date
2026-03-02
Launch site
AFETR
Launch vehicle
Mass (kg)
RCS (m²)

Purposes: comms

External: N2YO · Heavens-Above · Gunter

§ Orbital elements

Epoch: 2026-09-20T03:01:59.699424Z

Period
93.85 min
Inclination
53.1574°
Eccentricity
0.0001306
Mean motion
15.34406397 rev/d
Perigee alt
461.8 km
Apogee alt
463.6 km
Semi-major
6,840.8 km
B*
3.6305e-4
RAAN
221.3379°
Arg perigee
93.7057°
Mean anomaly
266.4095°
Rev number
3,123

§ Raw data

STARLINK-369661 68044U 26041E   26263.12638541  .00011912  00000+0  36305-3 0  99972 68044  53.1574 221.3379 0001306  93.7057 266.4095 15.34406397 31230

JSON: /api/v1/satellites/68044 · /tle

For live sub-satellite position, see the globe view (requires WebGL).

§ Visibility from observer

Set your observer location to see the next 7 days of passes ≥ 10°. The values pass through the URL so the page stays shareable.

No JS? Fill the form by hand. The geolocation button needs JavaScript.